STARLINK-35134

Last updated on Sun Oct 19 2025 00:02:05 GMT+0000 (Coordinated Universal Time)

1 65641U 25210V 25291.18255276 .00089379 00000+0 22173-2 0 9999 2 65641 53.1595 251.0625 0001246 92.0176 268.0972 15.39634393 5882

Satellite not in orbit

STARLINK-35134